Weather History for CWEU - January, 2014

Change the Weather History Date:

Friday, January 24, 2014

  Actual Average Record
Temperature  
Mean Temperature -43 °F -  
Max Temperature -37 °F -30 °F -16 °F (2005)
Min Temperature -49 °F -43 °F -56 °F (2000)
Degree Days  
Heating Degree Days 108    
Moisture  
Dew Point -50 °F    
Average Humidity 72    
Maximum Humidity 81    
Minimum Humidity 50    
Precipitation  
Precipitation 0.00 in 0.00 in - ()
Sea Level Pressure  
Sea Level Pressure 29.74 in    
Wind  
Wind Speed 1 mph ()    
Max Wind Speed 5 mph    
Max Gust Speed -    
Visibility 13.5 miles    
Events Snow    
Averages and records for this station are not official NWS values.
T = Trace of Precipitation, MM = Missing Value Source: Averaged Metar Reports

Daily Weather History Graph

Daily Weather History Graph

Search for Another Location

Airport or City:

Trip Planner

Search our weather history database for the weather conditions in past years. The results will help you decide how hot, cold, wet, or windy it might be!

Date:

Astronomy

Dec. 31, 1969 Rise Set
Actual Time Sun does not rise Sun does not rise
Civil Twilight Sun does not rise Sun does not rise
Nautical Twilight 8:52 AM CST 3:00 PM CST
Astronomical Twilight 6:15 AM CST 5:38 PM CST
Moon No Moon Rise No Moon Set
Length of Visible Light 0h 00m
Length of Day
0h 00m
Last Quarter, 44% of the Moon is Illuminated
Jan 24
Last Quarter
Jan 30
New
Feb 6
First Quarter
Feb 14
Full
Feb 22
Last Quarter

Hourly Weather History & Observations

Time (CST) Temp. Windchill Dew Point Humidity Pressure Visibility Wind Dir Wind Speed Gust Speed Precip Events Conditions
12:00 AM -45 °F - -50 °F 56% 29.79 in 15 mi Calm Calm - -   Clear
12:00 AM -45.4 °F - -50.8 °F 74% 29.79 in 15.0 mi Calm Calm - N/A   Clear
1:00 AM -47.2 °F - -50.8 °F 81% 29.79 in 15.0 mi Calm Calm - N/A   Clear
2:00 AM -47.2 °F - -50.8 °F 81% 29.79 in 15.0 mi Calm Calm - N/A   Clear
3:00 AM -49.0 °F - -52.6 °F 81% 29.79 in 15.0 mi Calm Calm - N/A   Clear
3:25 AM - - - N/A% - 15.0 mi East 2.3 mph - N/A   Clear
4:00 AM -47.2 °F - -50.8 °F 81% 29.79 in 15.0 mi Calm Calm - N/A   Clear
5:00 AM -47.2 °F - -52.6 °F 73% 29.79 in 15.0 mi East 2.3 mph - N/A   Clear
6:00 AM -46 °F - -50 °F 63% 29.78 in 15 mi Calm Calm - - Snow Snow
6:00 AM -45.4 °F - -50.8 °F 74% 29.78 in 15.0 mi Calm Calm - N/A   Clear
7:00 AM -47.2 °F -65.0 °F -50.8 °F 81% 29.77 in 15.0 mi SE 4.6 mph - N/A   Clear
8:00 AM -45.4 °F - -50.8 °F 74% 29.76 in 15.0 mi Calm Calm - N/A   Clear
9:00 AM -47.2 °F - -52.6 °F 73% 29.75 in 15.0 mi Calm Calm - N/A   Clear
10:00 AM -47.2 °F - -52.6 °F 73% 29.73 in 15.0 mi Calm Calm - N/A   Clear
11:00 AM -47.2 °F - -50.8 °F 81% 29.72 in 15.0 mi East 2.3 mph - N/A   Clear
12:00 PM -47 °F - -52 °F 59% 29.71 in 15 mi Calm Calm - - Snow Snow
12:00 PM -47.2 °F - -52.6 °F 73% 29.71 in 15.0 mi Calm Calm - N/A   Clear
1:00 PM -45.4 °F - -50.8 °F 74% 29.71 in 10.0 mi NE 2.3 mph - N/A   Clear
2:00 PM -45.4 °F - -50.8 °F 74% 29.70 in 5.0 mi Calm Calm - N/A   Ice Crystals
3:00 PM -43.6 °F - -49.0 °F 74% 29.70 in 10.0 mi North 2.3 mph - N/A   Partly Cloudy
4:00 PM -43.6 °F - -49.0 °F 74% 29.70 in 7.0 mi Calm Calm - N/A   Clear
5:00 PM -43.6 °F - -49.0 °F 74% 29.70 in 7.0 mi Calm Calm - N/A   Clear
6:00 PM -41 °F - -48 °F 50% 29.70 in 15 mi Calm Calm - - Snow Snow
6:00 PM -41.8 °F - -47.2 °F 74% 29.70 in 15.0 mi Calm Calm - N/A   Clear
7:00 PM -41.8 °F - -49.0 °F 67% 29.71 in 10.0 mi NNE 2.3 mph - N/A   Clear
8:00 PM -41.8 °F -55.6 °F -49.0 °F 67% 29.73 in 15.0 mi SSE 3.5 mph - N/A   Clear
9:00 PM -40.0 °F - -47.2 °F 67% 29.74 in 15.0 mi Calm Calm - N/A   Clear